Regional Weather Roundup
Issued by NWS

Home | Current Version | Previous Version | Text Only | Print | Product List | Glossary On
Versions: 1 2 3 4 5 6 7 8 9 10 11 12 13 14 15 16 17 18 19 20 21 22 23 24 25 26 27
000
ASUS42 KKEY 230310
RWRKEY

FLORIDA REGIONAL WEATHER ROUNDUP FOR THE FLORIDA KEYS
NATIONAL WEATHER SERVICE KEY WEST FLORIDA
1100 PM EDT WED OCT 22 2014

...SOUTH FLORIDA AND THE KEYS...

CITY           SKY/WX    TMP DP  RH WIND       PRES   REMARKS
FORT MYERS     CLOUDY    77  71  82 CALM      29.93S
SW REGIONAL AP CLOUDY    75  72  90 CALM      29.94S
NAPLES         CLOUDY    77  72  84 E3        29.93S
MIAMI          CLOUDY    76  72  87 CALM      29.94F
WEST KENDALL   CLOUDY    76  72  87 CALM      29.94F
HOMESTEAD      CLOUDY    74  72  93 E2        29.94S
MARATHON       CLOUDY    74 N/A N/A E8        29.93R
BOCA CHICA NAS MOCLDY   N/A N/A N/A E9        29.93R
KEY WEST INTL  RAIN      74  74 100 E7        29.93R

...INTERNATIONAL WEATHER...

CITY           SKY/WX    TMP DP  RH WIND       PRES   REMARKS
NASSAU BAHAMAS NOT AVBL
CANCUN MEXICO  LGT RAIN  75  75 100 SE2       29.82R
COZUMEL MEXICO LGT RAIN  73  73 100 CALM      29.82R

ADJACENT COASTAL WATERS...

STATION/POSITION TIME  SKY/WX   TEMP    WIND        PRES    WAVE
                                AIR SEA DIR/SP/G            HT/PER
                 (UTC)          (F)     (DEG/KT/KT) (MB)    (FT/S)
PULASKI SHOAL LI 0200            78     120/ 16/ 19 1012.5S
SAND KEY         0236            77      80/ 16/ 18 1013.3R
SOMBRERO KEY     0300            77      90/ 16/ 17 1013.7R
LONG KEY         0300            77 79   80/ 12/ 13 1014.1S
MOLASSES REEF    0300            77 83   80/  8/ 10 1013.6S
FOWEY ROCKS      0300            77 81  140/  6/  7 1013.9F
Buoy 42080       NOT AVBL

$$



USA.gov is the U.S. government's official web portal to all federal, state and local government web resources and services.